Tracking 25620 objects as of 18-May-2022
HD Live streaming from Space Station
objects crossing your sky now

DELTA 1 DEB *

Track DELTA 1 DEB * now!
10-day predictions


NORAD ID: 8791
Int'l Code: 1966-087F
Perigee: 1,310.8 km
Apogee: 1,524.7 km
Inclination: 101.5 °
Period: 114.0 minutes
Semi major axis: 7788 km
RCS: 0.0151 m2 (small)
Launch date: October 2, 1966
Source: United States (US)
Launch site: AIR FORCE WESTERN TEST RANGE (AFWTR)

Note: This is SATELLITE DEBRIS
aabbcc
Your satellite tracking list
Your tracking list is empty




NASA's NSSDC Master Catalog

Two Line Element Set (TLE):
1  8791U 66087F   22137.90388015  .00000011  00000-0  30068-3 0  9993
2  8791 101.4878 107.8496 0137313 274.3244 110.8357 12.63003846556267
Source of the keplerian elements: AFSPC